BEIDOU-2 G8

Last updated on Sat Dec 13 2025 00:02:50 GMT+0000 (Coordinated Universal Time)

1 44231U 19027A 25346.30496598 -.00000238 00000+0 00000+0 0 9999 2 44231 1.6611 74.7001 0008673 255.6977 5.1435 1.00267912 24209
UTC large
Height (km)
Speed (km/s)
/
Latitude / Longitude
Inclination (degrees)
Orbital Period (minutes)
Azimuth
Elevation
Range (km)
Doppler Factor

Next 0 passes for location: London (51.5072 / 0.1276)

Sorry there are no passes over London.